Zurück zum Katalog

NETSAT-3

AktivWissenschaftPO
NORAD 46505·PAYLOAD·🇩🇪 Germany

Gestartet Sep 28, 2020 von Plesetsk Cosmodrome

Loading…

Nächste Überflüge (nächste 24 Stunden)

TLE

AktuellSource: Space-Track

Epoche: Sep 14, 2026, 11:53 UTC

1 46505U 20068V   26257.49537097  .00015253  00000-0  31964-3 0  9994
2 46505  97.8664 271.2262 0005483  39.1736 320.9907 15.45510480329460

Verfolge NETSAT-3 in Echtzeit mit AllMySat

Download on the App Store